Regional Weather Roundup
Issued by NWS

Home | Current Version | Previous Version | Text Only | Print | Product List | Glossary On
Versions: 1 2 3 4 5 6 7 8 9 10 11 12 13 14 15 16 17 18 19 20 21 22 23 24 25 26 27 28 29 30 31 32 33 34 35 36 37 38 39 40 41 42 43 44 45 46 47 48 49 50
943
ASUS44 KJAN 190410
RWRMS

MISSISSIPPI HOURLY WEATHER ROUNDUP
NATIONAL WEATHER SERVICE JACKSON MS
1100 PM CDT FRI APR 18 2014

NOTE: "FAIR: INDICATES FEW OR NO CLOUDS BELOW 12,000 FEET WITH NO
SIGNIFICANT WEATHER AND/OR OBSTRUCTIONS TO VISIBILITY.

MSZ001>002-007>008-010>013-018>021-025>028-034>036-190500-
NORTHWEST MISSISSIPPI

CITY           SKY/WX    TMP DP  RH WIND       PRES   REMARKS
CLARKSDALE       N/A     63  54  72 CALM      30.19R
CLEVELAND      FAIR      61  55  81 E6        30.18R
GREENWOOD      CLEAR     55  52  89 CALM      30.18R
GREENVILLE     CLEAR     63  53  70 E7        30.17R
GRENADA        FAIR      55  52  88 E3        30.18S
OLIVE BRANCH   PTCLDY    61  54  77 CALM      30.19S
OXFORD         FAIR      55  50  82 CALM      30.19S
TUNICA         PTCLDY    59  52  77 CALM      30.19R
$$

MSZ003>006-009-014>017-022>024-029>033-037>039-190500-
NORTHEAST MISSISSIPPI

CITY           SKY/WX    TMP DP  RH WIND       PRES   REMARKS
BELMONT        FAIR      51  50  96 CALM      30.17S
COLUMBUS AFB   CLOUDY    54  54 100 W2        30.16F
CORINTH        FAIR      54  50  87 CALM      30.18S
GOLDN TRIANGLE MOCLDY    54  48  82 CALM      30.19S
STARKVILLE     FAIR      52  52 100 CALM      30.17S
TUPELO         MOCLDY    55  52  89 CALM      30.17S
$$

MSZ040-058-190500-
CENTRAL MISSISSIPPI

CITY           SKY/WX    TMP DP  RH WIND       PRES   REMARKS
JACKSON INTL   PTCLDY    57  53  86 NE3       30.18R
JACKSON HAWKNS CLEAR     60  53  77 E3        30.18R
MERIDIAN KEY   MOCLDY    55  53  93 NW3       30.16R
MERIDIAN NAS   CLOUDY    56  52  86 N7        30.16S
RAYMOND        FAIR      55  50  82 CALM      30.18R
VICKSBURG      CLEAR     62  54  74 NE6       30.18R
$$

MSZ059>079-190500-
SOUTH MISSISSIPPI

CITY           SKY/WX    TMP DP  RH WIND       PRES   REMARKS
BROOKHAVEN     FAIR      57  55  94 CALM      30.18R
COLUMBIA       FAIR      55  55 100 MISG      30.15R
HATTIESBURG    CLEAR     58  54  86 N7        30.15S
MCCOMB         CLEAR     59  53  80 CALM      30.16R
NATCHEZ        CLOUDY    57  55  94 CALM      30.16S
PINE BELT      CLEAR     55  50  82 N7        30.16R
$$

MSZ080>082-190500-
COASTAL MISSISSIPPI

CITY           SKY/WX    TMP DP  RH WIND       PRES   REMARKS
BILOXI         CLOUDY    59  54  82 N9        30.11R
PASCAGOULA     CLOUDY    59  54  83 N7        30.10S
GULFPORT       PTCLDY    61  52  72 N10       30.11R
$$



USA.gov is the U.S. government's official web portal to all federal, state and local government web resources and services.